Location: Appleton
(44.2618°N, 88.4157°W)
Time: 07:46:34
(UTC+00:00)

S-56A Canister/Altair - Pass Details

Date: 01 March 2021
Orbit: 632 x 2500 km, 38.9° (Epoch: 17 April)

Event Time Altitude Azimuth Distance (km) Brightness Sun altitude
Rises 18:38:46 0° 207° (SSW) 5,461 12.7 37.9°
Reaches altitude 10° 18:42:32 10° 199° (SSW) 4,678 12.8 37.8°
Maximum altitude 18:54:13 35° 140° (SE) 3,470 11.7 37.3°
Drops below altitude 10° 19:06:54 10° 83° (E) 5,106 11.6 36.7°
Sets 19:11:12 0° 76° (ENE) 6,008 11.8 36.4°
